Probability
0 0 0 0 0 0 0 0 0 0 0 0 0 0 0 0 0 0 0 0 0 0 0 0 0 0 0 0 0 0 0 0 0 0 0 0 0 0 0 0 0 0 0 0
0 0 0 0 0 0 0 0 0 0 0 0 0 0 0 0 0 0 0 0 0 0 0 0 0 0 0 0 0 0 0 0 0 0 0 0 0 0 0 0 0 0 0 0
0 0 0 0 0 0 0 0 0 0 0 0 0 0 0 0 0 0 0 0 0 0 0 0 0 0 0 0 0 0 0 0 0 0 0 0 0 0 0 0 0 0 0 0
0 0 0 0 0 0 0 0 0 0 0 0 0 0 0 0 0 0 0 0 0 0 0 0 0 0 0 0 0 0 0 0 0 0 0 0 0 0 0 0 0 0 0 0
0 0 0 0 0 0 0 0 0 0 0 0 0 0 0 0 0 0 0 0 0 0 0 0 0 0 0 0 0 0 0 0 0 0 0 0 0 0 0 0 0 0 0 0
0 0 0 0 0 0 0 0 0 0 0 0 0 0 0 0 0 0 0 0 0 0 0 0 0 0 0 0 0 0 0 0 0 0 0 0 0 0 0 0 0 0 0 0
0 0 0 0 0 0 0 0 0 0 0 0 0 0 0 0 0 0 0 0 0 0 0 0 0 0 0 0 0 0 0 0 0 0 0 0 0 0 0 0 0 0 0 0
0 0 0 0 0 0 0 0 0 0 0 0 0 0 0 0 0 0 0 0 0 0 0 0 0 0 0 0 0 0 0 0 0 0 0 0 0 0 0 0 0 0 0 0
0 0 0 0 0 0 0 0 0 0 0 0 0 0 0 0 0 0 0 0 0 0 0 0 0 0 0 0 0 0 0 0 0 0 0 0 0 0 0 0 0 0 0 0
0 0 0 0 0 0 0 0 0 0 0 0 0 0 0 0 0 0 0 0 0 0 0 0 0 0 0 0 0 0 0 0 0 0 0 0 0 0 0 0 0 0 0 0
0 0 0 0 0 0 0 0 0 0 0 0 0 0 0 0 0 0 0 0 0 0 0 0 0 0 0 0 0 0 0 0 0 0 0 0 0 0 0 0 0 0 0 0
0 0 0 0 0 0 0 0 0 0 0 0 0 0 0 0 0 0 0 0 0 0 0 0 0 0 0 0 0 0 0 0 0 0 0 0 0 0 0 0 0 0 0 0
0 0 0 0 0 0 0 0 0 0 0 0 0 0 0 0 0 0 0 0 0 0 0 0 0 0 0 0 0 0 0 0 0 0 0 0 0 0 0 0 0 0 0 0
0 0 0 0 0 0 0 0 0 0 0 0 0 0 0 0 0 0 0 0 0 0 0 0 0 0 0 0 0 0 0 0 0 0 0 0 0 0 0 0 0 0 0 0
0 0 0 0 0 0 0 0 0 0 0 0 0 0 0 0 0 0 0 0 0 0 0 0 0 0 0 0 0 0 0 0 0 0 0 0 0 0 0 0 0 0 0 0
0 0 0 0 0 0 0 0 0 0 0 0 0 0 0 0 0 0 0 0 0 0 0 0 0 0 0 0 0 0 0 0 0 0 0 0 0 0 0 0 0 0 0 0
0 0 0 0 0 0 0 0 0 0 0 0 0 0 0 0 0 0 0 0 0 0 0 0 0 0 0 0 0 0 0 0 0 0 0 0 0 0 0 0 0 0 0 0
0 0 0 0 0 0 0 0 0 0 0 0 0 0 0 0 0 0 0 0 0 0 0 0 0 0 0 0 0 0 0 0 0 0 0 0 0 0 0 0 0 0 0 0
0 0 0 0 0 0 0 0 0 0 0 0 0 0 0 0 0 0 0 0 0 0 0 0 0 0 0 0 0 0 0 0 0 0 0 0 0 0 0 0 0 0 0 0
0 0 0 0 0 0 0 0 0 0 0 0 0 0 0 0 0 0 0 0 0 0 0 0 0 0 0 0 0 0 0 0 0 0 0 0 0 0 0 0 0 0 0 0
0 0 0 0 0 0 0 0 0 0 0 0 0 0 0 0 0 0 0 0 0 0 0 0 0 0 0 0 0 0 0 0 0 0 0 0 0 0 0 0 0 0 0 0
0 0 0 0 0 0 0 0 0 0 0 0 0 0 0 0 0 0 0 0 0 0 0 0 0 0 0 0 0 0 0 0 0 0 0 0 0 0 0 0 0 0 0 0
0 0 0 0 0 0 0 0 0 0 0 0 0 0 0 0 0 0 0 0 0 0 0 0 0 0 0 0 0 0 0 0 0 0 0 0 0 0 0 0 0 0 0 0
0 0 0 0 0 0 0 0 0 0 0 0 0 0 0 0 0 0 0 0 0 0 0 0 0 0 0 0 0 0 0 0 0 0 0 0 0 0 0 0 0 0 0 0
0 0 0 0 0 0 0 0 0 0 0 0 0 0 0 0 0 0 0 0 0 0 0 0 0 0 0 0 0 0 0 0 0 0 0 0 0 0 0 0 0 0 0 0
0 0 0 0 0 0 0 0 0 0 0 0 0 0 0 0 0 0 0 0 0 0 0 0 0 0 0 0 0 0 0 0 0 0 0 0 0 0 0 0 0 0 0 0
0 0 0 0 0 0 0 0 0 0 0 0 0 0 0 0 0 0 0 0 0 0 0 0 0 0 0 0 0 0 0 0 0 0 0 0 0 0 0 0 0 0 0 0
Height
5759 5757 5755 5754 5754 5751 5747 5745 5743 5743 5741 5739 5735 5732 5728 5724 5720 5715 5711 5705 5700 5695 5689 5683 5677 5671 5664 5657 5650 5642 5635 5627 5619 5611 5603 5594 5586 5579 5571 5563 5556 5549 5542 5536
5751 5749 5746 5746 5746 5743 5740 5738 5735 5734 5732 5729 5727 5723 5719 5715 5710 5705 5700 5694 5688 5682 5676 5670 5663 5656 5648 5641 5633 5624 5616 5607 5598 5590 5581 5572 5564 5556 5548 5540 5533 5526 5519 5513
5742 5741 5738 5739 5737 5735 5732 5730 5728 5726 5724 5720 5717 5713 5708 5704 5699 5693 5688 5682 5675 5668 5661 5654 5647 5639 5631 5622 5614 5604 5595 5586 5576 5567 5559 5550 5541 5533 5525 5517 5510 5503 5497 5490
5731 5732 5731 5732 5728 5726 5723 5722 5720 5717 5714 5711 5707 5702 5697 5692 5687 5681 5675 5668 5661 5653 5646 5638 5630 5621 5612 5603 5593 5583 5573 5563 5553 5544 5535 5527 5518 5510 5502 5495 5488 5482 5476 5469
5721 5720 5721 5722 5719 5716 5714 5713 5711 5708 5704 5700 5695 5691 5686 5680 5674 5667 5660 5653 5645 5637 5629 5620 5611 5602 5592 5582 5572 5561 5551 5541 5531 5521 5513 5505 5497 5489 5481 5474 5468 5462 5456 5450
5712 5710 5711 5713 5710 5707 5706 5703 5701 5697 5693 5688 5683 5679 5675 5668 5661 5654 5646 5638 5629 5620 5611 5601 5591 5581 5571 5561 5551 5540 5530 5520 5510 5501 5492 5484 5476 5469 5462 5455 5449 5443 5438 5432
5702 5699 5700 5701 5699 5697 5696 5694 5689 5685 5680 5676 5671 5665 5659 5652 5645 5637 5629 5620 5611 5602 5592 5581 5571 5561 5551 5540 5530 5520 5510 5501 5491 5482 5473 5465 5458 5451 5443 5437 5431 5426 5421 5416
5692 5690 5692 5689 5688 5686 5684 5680 5676 5672 5667 5662 5657 5650 5643 5636 5628 5620 5612 5603 5594 5584 5574 5562 5550 5540 5531 5521 5511 5501 5492 5483 5474 5465 5456 5447 5440 5434 5427 5420 5415 5410 5405 5400
5684 5684 5680 5678 5676 5673 5670 5667 5662 5658 5653 5647 5641 5635 5628 5620 5612 5604 5595 5585 5575 5565 5556 5544 5532 5520 5510 5502 5492 5483 5475 5466 5457 5449 5441 5432 5425 5418 5412 5406 5400 5395 5390 5385
5673 5672 5669 5667 5664 5661 5658 5653 5648 5643 5638 5632 5626 5619 5612 5604 5595 5586 5577 5567 5557 5547 5537 5528 5516 5504 5492 5483 5474 5466 5458 5450 5442 5434 5427 5419 5411 5404 5398 5392 5386 5381 5376 5371
5662 5661 5658 5656 5653 5649 5645 5640 5635 5629 5623 5617 5611 5604 5596 5588 5579 5569 5559 5549 5539 5528 5519 5509 5499 5489 5477 5467 5459 5451 5444 5436 5428 5420 5413 5406 5400 5392 5386 5380 5372 5367 5362 5357
5652 5650 5648 5645 5641 5637 5632 5627 5622 5616 5610 5603 5595 5588 5580 5571 5561 5551 5541 5531 5522 5512 5502 5492 5483 5473 5463 5454 5445 5437 5430 5422 5415 5408 5401 5394 5388 5382 5375 5368 5362 5355 5349 5344
5639 5638 5635 5632 5627 5623 5619 5613 5607 5601 5594 5587 5579 5571 5563 5554 5544 5534 5524 5514 5505 5495 5486 5476 5468 5459 5449 5441 5432 5424 5417 5410 5403 5396 5389 5383 5376 5370 5365 5360 5352 5345 5339 5333
5627 5624 5621 5617 5613 5608 5603 5597 5591 5584 5577 5569 5562 5553 5544 5536 5527 5517 5507 5498 5489 5480 5471 5462 5454 5445 5436 5428 5421 5413 5406 5398 5391 5385 5378 5372 5365 5359 5353 5348 5343 5337 5330 5323
5613 5610 5606 5602 5597 5592 5587 5581 5575 5568 5560 5553 5544 5536 5527 5519 5511 5501 5492 5483 5475 5466 5457 5448 5441 5433 5425 5417 5410 5403 5395 5388 5382 5375 5369 5362 5356 5349 5343 5337 5331 5326 5320 5314
5598 5595 5591 5587 5582 5576 5570 5564 5558 5551 5544 5536 5528 5520 5511 5503 5495 5486 5478 5468 5460 5452 5444 5436 5429 5421 5413 5406 5399 5393 5386 5379 5372 5365 5359 5352 5346 5340 5333 5327 5322 5316 5310 5304
5584 5580 5576 5571 5566 5560 5554 5547 5540 5534 5526 5519 5511 5504 5495 5487 5480 5473 5465 5456 5447 5439 5431 5424 5417 5410 5403 5396 5389 5382 5376 5370 5363 5356 5349 5343 5337 5330 5324 5318 5312 5307 5301 5295
5568 5564 5560 5555 5550 5544 5538 5531 5524 5517 5509 5502 5495 5488 5480 5472 5465 5459 5452 5444 5437 5429 5421 5413 5406 5400 5393 5386 5379 5373 5366 5360 5354 5347 5341 5334 5328 5322 5315 5310 5304 5298 5293 5287
5552 5548 5544 5538 5533 5527 5521 5515 5508 5501 5493 5486 5479 5473 5466 5458 5451 5445 5438 5432 5424 5418 5412 5404 5397 5390 5383 5376 5370 5363 5357 5351 5345 5338 5332 5326 5319 5313 5307 5302 5296 5290 5284 5279
5536 5532 5527 5522 5516 5510 5504 5498 5491 5485 5477 5470 5464 5458 5452 5446 5438 5432 5427 5420 5412 5406 5400 5393 5387 5381 5374 5368 5361 5355 5348 5342 5336 5330 5324 5318 5312 5306 5300 5294 5288 5283 5277 5272
5520 5515 5510 5505 5500 5494 5487 5481 5474 5468 5463 5456 5449 5443 5439 5433 5426 5420 5414 5409 5403 5396 5390 5383 5377 5371 5365 5358 5352 5346 5340 5334 5328 5322 5316 5311 5305 5299 5293 5287 5281 5276 5271 5266
5503 5499 5494 5488 5483 5478 5472 5465 5458 5452 5447 5442 5436 5430 5425 5420 5415 5409 5403 5397 5392 5386 5380 5374 5368 5362 5356 5350 5344 5338 5332 5327 5321 5315 5309 5303 5298 5292 5286 5280 5275 5270 5265 5260
5486 5482 5477 5471 5466 5461 5456 5450 5443 5437 5432 5427 5422 5417 5412 5407 5402 5397 5392 5387 5381 5376 5370 5364 5358 5352 5347 5341 5335 5330 5325 5319 5314 5308 5303 5297 5291 5285 5280 5275 5269 5264 5259 5254
5470 5465 5460 5454 5449 5444 5439 5435 5428 5423 5418 5413 5408 5403 5399 5395 5391 5385 5380 5376 5371 5365 5360 5355 5349 5343 5338 5333 5328 5323 5318 5313 5307 5302 5296 5291 5285 5280 5274 5269 5264 5259 5254 5249
5453 5448 5443 5438 5433 5428 5423 5419 5415 5410 5405 5401 5396 5391 5386 5382 5379 5375 5370 5366 5361 5356 5351 5346 5340 5335 5330 5325 5320 5315 5311 5306 5301 5296 5291 5285 5280 5275 5270 5264 5259 5255 5250 5245
5437 5432 5427 5422 5417 5412 5408 5404 5400 5396 5392 5388 5384 5380 5376 5372 5368 5364 5360 5356 5351 5346 5341 5337 5332 5327 5322 5317 5313 5308 5304 5299 5295 5290 5285 5280 5275 5270 5265 5260 5255 5250 5246 5242
5421 5416 5412 5408 5403 5397 5393 5389 5385 5382 5378 5375 5372 5369 5365 5361 5358 5354 5350 5346 5342 5337 5333 5328 5323 5319 5315 5310 5306 5302 5298 5293 5289 5284 5280 5275 5270 5265 5260 5256 5251 5247 5243 5238
Wind_Speed
28 29 29 27 26 27 30 31 31 28 29 29 30 31 32 34 36 39 41 44 46 48 51 53 55 58 60 62 64 66 68 70 71 72 73 73 73 73 73 72 72 71 71 71
29 29 30 28 27 29 30 31 33 32 32 32 32 33 35 37 40 43 45 48 51 53 56 58 60 63 65 67 69 71 73 75 76 77 77 76 76 75 74 73 72 71 71 71
31 30 31 30 29 30 31 32 33 33 33 34 35 36 38 41 44 46 49 52 55 58 61 63 66 69 71 73 75 77 78 79 80 79 78 77 76 74 73 72 71 70 69 68
34 32 32 30 30 31 32 32 33 34 35 36 38 40 42 45 48 51 54 57 60 63 66 68 71 73 76 78 79 81 81 81 80 78 77 75 73 72 70 69 68 67 65 65
36 34 32 30 32 33 34 34 35 36 38 39 41 44 46 50 53 56 59 62 65 68 70 73 75 78 80 81 82 82 81 79 77 75 73 71 69 68 66 65 63 63 62 61
36 37 35 33 34 34 36 37 37 38 40 43 45 48 50 54 57 60 63 66 69 72 75 77 79 81 82 82 82 81 78 76 73 71 69 67 65 63 62 61 60 59 58 57
37 38 37 36 37 37 38 39 40 42 44 47 50 53 56 59 62 65 68 71 73 76 78 80 82 82 82 81 79 77 74 71 69 66 64 63 61 60 59 57 56 55 53 53
36 38 39 39 39 39 40 42 44 46 49 52 55 57 60 63 66 69 72 74 77 79 80 80 81 81 79 77 75 73 70 66 64 61 60 59 58 56 55 54 53 52 50 50
37 38 40 41 41 42 44 46 48 51 53 56 59 61 64 66 69 72 75 77 79 80 80 79 78 77 75 73 71 68 65 62 59 57 56 56 54 53 51 51 50 49 48 47
38 39 41 42 43 45 48 50 52 55 57 60 62 65 67 70 73 75 77 78 79 79 78 76 74 72 71 69 67 64 61 57 55 54 52 51 50 49 48 48 47 46 46 46
39 40 43 44 46 48 51 53 55 58 61 63 65 68 70 72 74 76 77 77 77 76 74 72 70 68 66 64 62 59 56 54 51 50 49 48 47 46 46 46 46 46 45 45
41 42 44 46 48 51 53 55 57 60 62 65 67 69 71 73 74 75 76 76 75 73 70 68 66 64 62 60 58 56 53 50 49 47 46 45 44 43 43 44 44 44 44 44
44 45 47 49 51 53 55 57 60 62 65 67 69 71 72 73 74 74 74 73 71 69 67 65 63 61 58 57 54 52 50 48 47 45 44 43 43 42 40 40 41 41 41 41
46 48 50 51 53 56 58 60 62 64 66 68 70 71 72 73 72 71 70 68 67 65 63 62 59 57 55 53 51 49 48 47 45 43 42 42 42 41 41 39 38 38 39 40
49 50 52 54 56 57 59 62 64 66 67 68 69 70 71 70 69 67 65 64 63 61 60 58 55 53 52 50 48 47 45 44 43 42 42 42 41 41 40 39 39 38 37 37
51 52 54 55 57 59 61 63 65 66 67 68 69 69 68 67 65 63 62 61 60 58 56 54 52 50 49 48 46 45 44 43 42 41 41 41 41 40 39 39 38 37 35 35
52 53 55 57 58 60 62 64 65 67 67 68 68 67 66 64 62 60 59 57 56 55 53 52 50 48 47 46 45 43 43 42 41 41 41 40 40 39 38 37 36 34 34 33
53 55 57 58 60 61 62 63 65 66 66 66 66 64 62 61 59 57 55 53 52 50 50 50 48 47 45 45 44 43 42 41 40 39 39 39 38 37 36 35 35 33 33 33
54 55 57 58 60 62 63 63 64 64 64 64 62 61 59 57 56 54 52 51 50 48 47 47 46 45 44 44 43 42 41 40 39 38 38 37 36 36 35 35 33 32 31 31
55 56 58 59 60 62 62 63 63 63 62 61 59 57 55 54 53 51 49 48 49 48 46 45 45 44 43 42 41 40 40 39 38 37 36 35 35 35 34 33 32 31 30 30
56 57 58 60 60 61 62 62 62 61 59 58 57 54 52 50 50 49 48 46 46 46 45 44 44 43 42 41 40 39 38 37 36 35 34 34 34 34 33 32 30 29 28 28
57 58 59 60 61 61 60 60 60 60 57 55 54 53 50 49 48 47 47 46 44 44 43 43 42 42 41 40 38 37 35 34 33 34 34 33 33 32 31 29 28 27 27 26
58 59 60 61 61 61 60 59 59 57 55 53 52 50 48 47 46 45 44 43 43 43 42 41 41 40 39 38 36 34 33 32 32 33 33 32 31 30 29 28 27 26 26 25
58 59 60 60 61 60 58 57 56 54 52 51 49 48 47 45 44 43 43 42 42 42 41 41 40 39 38 36 34 32 32 32 32 31 31 30 29 29 28 27 26 25 25 24
58 59 59 59 59 58 56 54 52 50 49 47 46 46 45 44 42 41 40 41 41 41 41 40 39 38 36 34 32 31 31 31 30 30 29 29 28 28 27 25 24 24 23 22
57 58 58 57 57 55 54 52 49 47 46 45 43 42 42 41 40 39 39 40 40 40 40 38 37 36 34 32 30 30 29 29 29 28 28 28 27 27 25 24 23 22 21 21
56 56 56 55 54 53 51 49 47 45 44 43 41 40 39 38 38 38 38 39 39 39 38 36 35 33 31 29 28 28 28 27 27 26 27 26 26 25 24 23 22 21 21 21
Wind_Direction
273 276 278 279 279 281 283 286 289 292 293 294 294 297 297 298 298 299 299 300 301 302 302 302 302 302 301 301 300 300 299 299 298 297 297 296 295 294 293 292 290 288 286 285
272 275 276 276 278 279 281 283 287 291 294 295 296 297 297 297 298 299 300 301 302 302 302 302 302 302 302 301 301 301 300 300 299 299 298 297 296 294 293 291 289 288 286 285
272 272 273 276 277 278 280 282 286 290 293 295 296 297 297 298 300 301 301 302 302 302 303 303 303 303 303 303 303 302 302 301 301 300 299 297 296 294 292 290 289 288 287 286
272 271 272 276 277 278 280 283 287 290 294 295 296 297 299 300 301 302 302 303 304 304 304 304 304 304 304 304 304 303 303 303 302 301 299 298 296 294 293 291 290 289 288 287
272 272 273 276 278 280 283 285 289 292 294 295 296 298 300 301 302 303 304 304 304 305 305 305 305 305 305 305 305 305 305 304 303 301 300 298 296 295 294 292 291 290 289 289
273 275 277 278 278 281 284 288 291 293 294 296 298 299 300 301 302 303 303 304 305 305 306 306 306 306 306 306 306 306 306 305 304 302 301 299 298 297 295 294 293 291 291 290
273 276 278 280 282 285 288 291 293 295 296 297 299 300 301 302 303 304 305 306 306 307 307 307 307 307 307 308 307 307 306 306 305 303 302 300 299 298 297 295 294 293 293 292
271 275 279 282 285 288 291 292 294 295 297 298 300 302 303 304 305 305 306 306 307 307 308 308 308 308 308 308 308 307 307 306 305 303 302 301 300 299 298 297 297 296 295 294
271 276 280 283 287 290 292 294 295 297 299 300 302 303 304 304 305 305 306 307 307 308 308 309 309 309 309 309 308 308 308 307 306 304 304 303 302 301 300 300 299 298 298 297
273 276 280 284 288 291 293 295 297 299 300 301 302 303 304 304 305 306 307 307 307 308 309 310 310 310 309 309 309 309 308 308 306 306 305 304 303 303 302 301 300 300 299 298
274 278 282 286 289 292 294 296 298 299 300 301 302 303 303 304 306 306 307 307 308 309 310 310 310 310 310 309 309 310 309 308 307 307 306 306 305 304 304 303 303 302 301 300
277 281 285 288 290 292 294 295 297 298 299 300 301 302 304 305 306 307 307 308 309 310 310 311 311 311 311 310 311 310 310 310 309 308 307 307 307 306 305 305 305 305 304 303
281 284 286 289 290 292 293 295 296 298 299 300 302 303 304 306 307 307 308 309 310 311 311 311 312 312 311 311 312 312 312 311 310 309 309 310 309 308 307 306 306 306 306 305
283 286 288 289 291 293 295 296 298 299 300 302 303 304 305 307 308 309 309 310 311 311 312 312 313 313 312 312 312 313 313 312 311 311 311 311 311 310 309 308 308 307 306 306
285 286 288 290 292 294 296 297 298 299 301 302 304 305 306 307 308 309 310 310 311 312 312 312 312 312 312 312 312 313 313 312 312 311 312 312 312 311 311 310 310 309 308 308
286 288 290 292 294 295 296 297 299 300 302 303 304 305 306 307 308 309 310 311 312 312 312 312 312 312 312 312 312 313 313 313 312 312 312 312 312 312 311 311 311 311 310 310
288 290 291 293 294 296 297 298 300 301 303 304 305 306 307 308 309 310 310 311 312 312 312 312 313 313 312 313 313 313 314 314 313 313 313 313 313 313 313 313 313 312 311 312
289 291 292 294 295 296 297 299 301 302 303 304 305 306 307 308 308 309 310 311 311 311 312 312 313 313 313 313 313 313 314 315 315 315 315 315 315 315 315 315 314 313 313 313
290 291 292 293 295 297 298 300 301 302 303 304 305 306 307 308 308 309 310 311 310 310 311 311 312 313 313 313 313 314 314 315 315 316 316 316 316 317 316 316 316 315 315 316
290 291 293 294 296 298 299 300 301 302 302 303 304 305 306 306 306 307 309 310 310 311 311 311 312 313 314 314 314 314 314 315 316 316 317 317 317 318 317 317 317 317 317 318
291 292 294 295 297 298 299 300 300 301 302 303 303 304 305 305 305 307 308 308 309 310 311 311 312 313 314 314 314 314 314 315 316 318 318 318 318 319 318 318 318 319 319 320
291 293 294 296 297 298 299 299 300 300 301 302 302 303 304 304 305 306 307 308 309 310 310 311 312 313 314 314 314 314 314 316 317 319 319 320 320 321 320 320 321 320 321 322
292 293 295 296 297 298 299 299 299 299 300 301 302 302 302 303 304 305 306 307 308 309 310 311 312 314 314 314 314 314 315 316 318 320 321 322 322 323 323 322 322 322 322 323
292 293 295 296 297 298 299 298 298 299 299 300 300 301 301 302 303 304 306 307 309 310 311 312 312 313 314 314 313 314 315 317 319 321 322 323 324 324 324 324 324 324 324 325
292 293 295 296 297 297 298 298 298 298 297 298 298 299 299 301 302 303 305 307 308 309 310 311 312 312 313 312 312 314 315 317 319 321 322 323 325 325 326 325 325 326 327 328
292 293 295 296 296 297 297 297 297 296 296 296 296 297 297 298 300 302 304 306 308 309 310 311 311 312 312 311 312 313 315 316 318 320 322 324 325 326 326 327 327 327 328 329
291 292 294 294 295 295 296 296 296 295 295 295 295 295 295 296 298 300 303 305 307 308 309 310 311 311 311 311 312 314 315 317 319 321 322 324 325 326 327 329 330 330 330 331